Погода в Казачинске

Погода в Казачинске : погода сейчас, прогноз погоды и архив. Всё, что Вы хотите узнать о погоде в Казачинске!

Хотите узнать прогноз погоды в Казачинске? Тогда Вам сюда: Погода в Казачинске

Поиск расширенной информации на нашем сайте:

Другие новости

Новости СМИ2

Главная страница сайта

Новости сайта

03.07.2017

Напоминаем, что на нашем специализированном сайте Метеоцентр.Азия вы можете получить высокодетализированные автоматические прогнозы погоды по пунктам России, СНГ и мира в авиационном формате (включающие направление и скорость ветра, видимость, явления погоды, количество и форму облачности, нижнюю и верхнюю границу облачности).

Рекомендуем: Только отдых в тунисе можно назвать полноценным отдыхом души и тела.

Погода в Казачинске - сегодня

Время (UTC), дата Ветер
(°,м/с) 
Видим.   Явления Облачность Т
(°С)
Тd
(°С)
f(%) Тe
(°С)
Pmin
(гПа)
dP
(гПа)
Po
(мм)
O2
(г/м3)
Тmin Tmax R s Состояние
почвы
12 14.08.18 020 (С) 20000 м    10/3 600 м кучево-дожд., верхняя 
[Cb cap|Cs]
+23.5 +17.1 67 +37  1005.8  -0.4  724  265    +30.5       
15 14.08.18 300 (СЗ) н/о    4/0 верхняя 
[Ci fib]
+17.4 +15.3 87 +29  1006.8  0.1  724  271           
18 14.08.18 220 (ЮЗ) н/о    3/0 верхняя 
[Ci fib]
+14.7 +13.5 93 +23  1006.8  -0.4  724  274           
21 14.08.18 210 (ЮЗ) 20000 м    10/6 600 м кучево-дожд., верхняя 
[Cb cap|Cs]
+15.4 +14.2 93 +25  1006.7  724  273           
00 15.08.18 190 (Ю) 20000 м  в посл. час ливневой дождь  10/10 600 м кучево-дожд. 
[Cb cap]
+16.3 +14.5 89 +27  1006.9  0.3  724  272  +14.7    0.1    сухая 
03 15.08.18 190 (Ю) 20000 м    9/9 300 м кучево-дожд., верхняя 
[Cb cap|Ci fib]
+21.6 +15.6 69 +32  1007.6  1.4  725  267           
09 15.08.18 180 (Ю) 5{12}  20000 м    9/9 600 м кучево-дожд. 
[Cb cap]
+19.6 +9.9 53 +22  1010.7  1.2  727  272           
12 15.08.18 230 (ЮЗ) 6{12}  20000 м    9/6 600 м кучево-дожд., верхняя 
[Cb cap|Ci fib]
+18.1 +8.2 52 +18  1011.6  0.7  728  274    +22.3       
15 15.08.18 230 (ЮЗ) 2{12}  н/о    3/3 600 м кучево-дожд. 
[Cb cap]
+13.7 +6.3 61 +14  1013.7  1.4  729  279           
18 15.08.18 220 (ЮЗ) н/о    6/6 600 м кучево-дожд. 
[Cb cap]
+12.7 +6.4 65 +13  1013.9  0.1  729  280           
21 15.08.18 200 (Ю) н/о    9/9 600 м кучево-дожд. 
[Cb cap]
+12.1 +6.3 68 +12  1013.3  -0.7  728  280           
00 16.08.18 200 (Ю) 20000 м    10/10 600 м кучево-дожд. 
[Cb cap]
+12 +6.9 71 +11  1013  -0.4  728  280  +11.9        сухая 
09 16.08.18 200 (Ю) 10 км  слаб. ливневой дождь  10/8 600 м кучево-дожд., средняя 
[Cb cap|As op]
+13.6 +8 69 +13  1010.5  -0.4  727  277           
12 16.08.18 200 (Ю) 20000 м  в посл. час ливневой дождь  10/8 600 м кучево-дожд., средняя 
[Cb cap|As op]
+12.1 +9.1 82 +13  1010.3  -0.4  726  279    +13.7     
15 16.08.18 210 (ЮЗ) н/о    10/8 600 м кучево-дожд., средняя 
[Cb cap|As op]
+12.2 +8.6 79 +13  1009.1  -1.2  725  278           
18 16.08.18 210 (ЮЗ) н/о  ливневой дождь  10/10 600 м кучево-дожд. 
[Cb cap]
+11.4 +9.4 87 +13  1007.7  -1.4  724  278           
21 16.08.18 220 (ЮЗ) н/о  слаб. ливневой дождь  10/10 600 м кучево-дожд. 
[Cb cap]
+11.2 +10 92 +14  1006.3  -1.3  723  278           
00 17.08.18 210 (ЮЗ) 10 км  слаб. ливневой дождь  10/10 200 м кучево-дожд. 
[Cb cap]
+11.3 +10.2 93 +14  1006.3  723  278  +11.1      влажная 
03 17.08.18 220 (ЮЗ) 20000 м  в посл. час ливневой дождь  10/10 300 м кучево-дожд. 
[Cb cap]
+12.7 +11.1 90 +17  1006.6  0.5  724  276           
06 17.08.18 280 (З) 20000 м  {ливн. осадки}  10/10 300 м кучево-дожд. 
[Cb cap]
+13.6 +9.4 76 +16  1006.9  0.4  724  276           
09 17.08.18 300 (СЗ) 20000 м    9/9 300 м кучево-дожд. 
[Cb cap]
+15.1 +9.4 69 +17  1007.1  0.4  724  275           
12 17.08.18 110 (В) 10 км  слаб. ливневой дождь  10/10 600 м кучево-дожд. 
[Cb cap]
+13.1 +11.2 88 +18  1007.3  724  276    +15.2     
15 17.08.18 200 (Ю) н/о  слаб. ливневой дождь  10/10 600 м кучево-дожд. 
[Cb cap]
+11.9 +10.7 92 +16  1006.7  -0.8  724  277           
18 17.08.18 тихо ()   н/о  в посл. час ливневой дождь  9/9 600 м кучево-дожд. 
[Cb cap]
+11.8 +10.7 93 +15  1005.5  -1.2  723  277           
21 17.08.18 200 (Ю) н/о  слаб. ливневой дождь  10/10 600 м кучево-дожд. 
[Cb cap]
+11.6 +10.5 93 +16  1004.6  -0.9  722  277           
Время (UTC), дата Ветер
(°,м/с) 
Видим.   Явления Облачность Т
(°С)
Тd
(°С)
f(%) Тe
(°С)
Pmin
(гПа)
dP
(гПа)
Po
(мм)
O2
(г/м3)
Тmin Tmax R s Состояние
почвы

Для получения пояснительной информации подведите курсор к названию столбца.

ПОГОДА в Казачинске - архив

Всё, что Вы хотите узнать о погоде в Казачинске - удобно и подробно!

Выберите нужную дату (начиная с 1 января 2015* года) и нажмите кнопку "Найти".
Будут отображены архивные сводки погоды по пункту Казачинск, начиная с указанной даты.


Отображать данные в формате CSV (для использования в таблицах Excel)


Внимание! Наш архив погоды предназначен исключительно для личного некоммерческого использования в познавательных целях. Если Вам необходимы официальные справки о состоянии погоды (для производственных, юридических, коммерческих и т.п. целей), обращайтесь в органы Росгидромета.

*Примечание: данная дата относится к архиву по метеостанциям СССР (Россия, СНГ, Балтия).
Архив по метеостанциям Зарубежной Европы и Азии (кроме Китая) хранится 10 дней, по другим регионам земного шара (Китай, Африка, Америка, Австралия, Океания) - 1 день.

Казачинск - район местоположения метеостанции


Название, широта, долгота, высота метеостанции:
Казачинск 56.3°ш. 107.6°д. 362 м над ур. моря [Российская Федерация]

Дополнительная информация

В oтличие oт бoльшинства пoгoдных сайтoв мы публикуем пoдрoбную метеoинфoрмацию в детальнoм прoфессиoнальнoм фoрмате.

Характеристики температуры и влажнoсти вoздуха измеряются на высoте 2 м в тени вдали oт зданий и деревьев.
Скoрoсть ветра измеряется на высoте 10 м (на урoвне рoста челoвека скoрoсть ветра ниже в 1.5-2 раза). Если метеoстанция нахoдится в гoрoде или в лесу, тo скoрoсть ветра занижена на 2-4 м/с пo сравнению с oткрытым местoм. Скoрoсть ветра над акватoриями крупных рек и oзёр, а также на вершинах хoлмoв на 2-5 м/с выше, чем в oбычных услoвиях.
Атмoсфернoе давление в разных тoчках местнoсти мoжет значительнo oтличаться oт давления на метеoстанции, в зависимoсти oт услoвий рельефа (при пoдъёме на 10 м давление пoнижается примернo на 1 мм рт.ст.).